Location: Forli
(44.2227°N, 12.0407°E)
Time: 02:41:45
(UTC+02:00)

DX 1 - Pass Details

Date: 13 April 2026
Orbit: 593 x 604 km, 98.4° (Epoch: 19 May)

Event Time Altitude Azimuth Distance (km) Brightness Sun altitude
Rises 02:53:25 0° 36° (NE) 2,840 ? -32.1°
Reaches altitude 10° 02:57:14 10° 72° (ENE) 1,930 ? -31.7°
Maximum altitude 02:58:29 11° 90° (E) 1,852 ? -31.6°
Enters shadow 02:58:43 11° 93° (E) 1,854 ? -31.6°
